GFSFLT2_con_3kmhel_027.txt.gz
Helicity
215 214 219 209 189 159 146 131 121 50 28 22 33 31 26 29 22 2 -5 5 4 14 18 32 35 46 37
217 227 190 165 151 144 121 125 103 59 32 17 19 21 21 21 6 15 27 20 28 41 45 32 40 40 36
243 216 184 157 132 107 121 100 126 65 28 19 21 6 12 27 26 23 19 29 25 28 24 33 29 30 34
228 189 161 137 120 127 118 118 98 94 64 68 25 36 42 46 22 -2 15 15 11 6 -11 -5 14 13 20
179 163 147 121 112 117 114 97 91 97 118 127 109 157 135 89 64 35 36 13 5 4 12 20 -2 -8 -10
157 148 111 118 118 109 94 93 99 99 90 99 130 169 163 160 66 35 9 -8 -5 27 51 66 81 90 88
109 119 115 112 97 123 115 112 125 117 104 139 158 160 140 135 82 108 17 -2 15 33 37 38 46 51 70
106 112 105 103 134 139 109 121 142 144 109 133 142 121 99 162 140 113 37 56 40 26 26 31 35 52 58
37 21 18 13 40 113 125 111 106 155 135 126 108 97 101 147 157 111 126 60 33 10 4 7 21 15 24
68 66 59 74 37 83 110 126 136 111 130 100 101 72 72 152 148 186 169 109 26 26 13 24 14 67 150
89 96 98 97 101 101 103 150 166 172 151 53 93 81 137 126 156 162 161 143 118 100 69 45 37 58 121
99 107 103 113 120 116 111 133 168 204 180 116 155 100 99 75 105 120 140 132 118 145 147 146 141 132 110
105 115 127 147 132 131 124 127 125 153 169 149 179 122 120 22 65 98 59 78 119 132 199 248 198 186 175
110 136 145 136 133 133 144 139 143 167 136 121 116 75 -11 24 45 90 62 129 206 226 176 189 193 200 192
129 140 139 133 140 137 146 148 145 131 119 134 114 104 103 78 93 131 121 160 179 128 126 113 214 193 147
135 138 141 138 147 147 140 141 144 147 123 111 31 44 59 89 52 62 141 139 136 131 122 112 143 151 110
139 142 149 155 112 152 155 148 139 121 139 96 16 21 70 126 199 116 72 115 137 155 106 116 142 135 111

GFSFLT2_con_3kmhel_033.txt.gz
Helicity
189 150 153 135 140 163 156 147 147 83 81 87 85 96 95 83 71 60 41 38 39 36 40 42 43 40 41
164 167 162 163 187 192 179 163 155 103 69 61 63 59 60 39 37 41 53 41 60 56 49 41 36 33 35
177 180 191 177 192 190 176 170 153 59 42 34 29 37 35 35 45 56 58 54 47 45 43 37 27 26 29
190 197 183 159 165 178 167 130 126 111 85 54 35 29 49 59 64 68 59 40 39 36 43 35 29 28 37
216 196 165 176 176 148 131 124 124 116 121 106 124 161 156 89 69 51 46 48 39 41 35 27 23 27 46
211 196 181 159 141 129 132 136 99 77 128 140 133 146 152 136 37 28 51 62 44 41 38 28 28 41 47
192 163 155 131 131 139 146 130 127 132 117 145 131 139 140 126 49 49 57 55 67 61 49 48 48 59 57
149 141 138 115 100 101 82 99 122 131 130 163 134 152 133 158 76 37 18 44 57 55 63 62 45 41 50
49 42 36 33 47 99 101 107 116 124 129 156 148 158 136 149 97 18 48 73 83 77 50 56 56 49 56
98 75 68 85 44 98 124 137 142 128 130 171 141 114 38 163 103 175 150 112 72 60 62 63 66 82 68
55 68 81 94 101 107 116 131 142 161 163 119 164 148 155 150 151 175 186 169 159 110 79 67 74 87 96
65 76 88 97 101 112 115 128 161 171 157 146 198 172 166 171 62 138 151 164 126 94 82 70 60 66 59
70 88 101 119 122 122 126 132 138 146 166 154 169 154 172 129 52 78 50 113 44 12 2 25 43 80 95
89 104 106 116 123 128 132 123 117 143 145 162 143 146 147 161 86 125 87 101 103 96 51 61 58 116 74
118 118 112 116 124 125 138 143 151 153 54 127 137 164 183 109 92 148 132 135 145 140 98 79 91 105 67
122 130 133 131 129 127 134 143 137 72 72 93 68 58 86 115 142 178 196 196 178 127 74 66 100 56 36
137 153 156 160 105 150 147 104 94 91 131 101 66 89 136 184 189 161 78 144 104 82 68 51 63 97 94

GFSFLT2_con_3kmhel_036.txt.gz
Helicity
193 159 156 136 133 148 143 159 161 111 118 138 128 112 109 112 81 83 83 65 73 61 61 54 49 53 52
175 166 148 136 152 166 180 169 164 119 110 99 88 82 85 73 68 69 63 86 76 60 71 68 72 64 67
169 170 153 152 161 170 179 180 188 123 98 74 65 65 62 62 67 71 82 90 90 75 66 55 58 57 61
185 195 173 171 175 177 199 177 187 156 112 68 50 54 57 67 66 70 78 78 74 70 64 45 46 41 35
214 234 203 165 177 192 197 175 153 129 130 101 112 126 155 113 86 57 53 57 63 75 67 39 42 24 27
244 208 183 189 190 181 180 167 107 58 127 107 110 125 140 136 56 25 33 38 53 68 57 25 36 34 24
199 190 190 161 169 160 150 118 124 129 108 102 102 128 126 120 44 37 35 36 52 68 67 48 43 35 36
187 160 162 137 123 118 102 109 117 111 100 114 106 132 121 146 73 25 2 20 52 68 72 69 54 43 29
68 63 55 50 60 117 122 115 106 103 99 106 108 120 127 139 93 16 19 53 57 68 64 62 45 30 29
114 85 71 86 56 117 137 142 136 97 108 121 108 98 45 146 106 182 163 79 54 36 35 42 29 38 35
64 74 81 85 98 120 126 144 139 167 163 101 160 150 180 191 160 148 172 157 163 137 55 -12 -4 12 27
68 69 76 92 101 103 105 124 155 169 145 136 200 184 190 166 110 134 159 192 183 156 117 27 -16 -19 -10
62 81 99 116 107 108 110 118 135 143 153 152 179 116 160 154 82 64 67 165 160 75 41 25 29 22 26
86 97 100 107 118 122 117 113 106 128 131 136 93 124 137 157 94 162 155 98 114 96 97 72 35 0 4
94 98 110 117 127 124 136 140 138 100 81 83 97 127 155 110 107 160 151 149 190 190 116 108 77 68 41
99 126 144 149 150 142 130 112 99 102 99 97 73 54 79 96 164 205 242 232 221 176 136 86 87 109 76
125 152 169 178 127 155 148 134 142 142 164 162 139 123 136 193 168 151 99 148 122 111 82 71 61 71 38

GFSFLT2_con_3kmhel_039.txt.gz
Helicity
167 170 170 144 132 139 125 139 140 99 108 117 131 146 152 162 148 139 103 81 74 59 65 52 74 52 54
173 168 145 135 124 130 129 136 152 110 114 122 149 164 154 116 100 91 73 63 63 75 89 87 85 63 64
164 137 123 126 128 124 135 135 152 117 107 115 152 139 113 94 95 83 88 76 63 66 64 63 53 46 49
169 171 151 115 134 121 124 158 181 175 126 120 109 84 80 88 80 69 55 44 43 49 53 52 48 50 42
177 181 173 149 134 152 191 182 183 156 151 150 117 160 187 134 101 62 49 48 53 61 60 68 71 53 37
187 182 180 178 197 192 193 203 175 101 150 142 115 138 171 149 64 28 35 44 46 47 56 58 56 57 46
186 197 188 177 183 180 174 165 151 151 126 136 104 136 135 109 38 29 33 31 34 51 63 71 66 63 57
189 163 171 152 144 131 118 124 146 130 114 133 102 130 90 132 64 25 8 17 38 54 59 61 62 62 42
93 98 82 65 65 109 126 123 109 110 117 117 106 93 99 117 78 3 9 38 47 49 49 51 55 49 62
125 91 71 76 54 109 132 146 142 113 133 157 134 90 32 139 110 162 158 66 34 25 32 41 45 108 117
64 70 77 82 90 108 124 164 165 206 176 120 186 173 209 195 176 174 175 141 159 145 73 35 17 30 122
65 72 82 93 100 111 117 135 173 184 151 140 217 201 185 130 64 90 171 202 199 179 146 91 10 -20 -38
64 85 103 121 114 116 125 135 151 153 146 109 114 95 133 131 113 139 101 195 175 84 64 77 100 88 -10
83 99 110 119 132 143 153 118 102 113 129 117 100 101 118 168 152 194 181 152 141 128 135 129 121 111 72
91 96 121 130 146 131 139 129 144 139 139 121 115 150 191 163 144 200 178 162 198 207 153 133 135 141 126
103 128 144 144 142 148 157 157 161 163 165 159 132 102 115 149 188 202 238 240 243 217 196 151 145 149 145
123 149 160 166 128 165 161 187 201 196 215 193 173 171 154 192 214 163 111 141 166 159 175 154 127 140 132

GFSFLT2_con_3kmhel_042.txt.gz
Helicity
144 151 152 144 136 131 114 123 128 85 93 86 107 111 108 118 119 120 117 113 110 99 69 86 71 90 78
134 151 143 129 118 121 116 118 128 87 88 83 113 137 139 119 111 107 97 92 71 59 80 80 78 78 73
146 131 116 113 124 108 117 120 118 72 63 79 122 135 115 110 108 111 89 72 68 65 64 65 59 39 28
170 156 141 111 117 120 97 109 130 128 89 94 117 101 98 100 96 76 61 58 54 51 44 35 28 22 21
164 154 140 127 116 120 149 127 146 126 138 178 141 145 181 138 115 73 61 57 49 42 36 35 33 35 36
151 147 146 135 163 159 145 152 137 96 149 162 116 135 181 166 75 36 38 40 39 40 42 49 61 61 49
180 157 148 140 148 161 157 146 147 129 131 156 117 150 152 134 36 31 31 23 27 40 47 51 51 57 50
138 135 155 138 135 135 102 114 132 129 117 155 124 158 113 138 60 6 2 21 34 42 48 51 50 53 54
101 101 83 49 50 98 109 110 107 116 142 145 150 141 119 127 58 -7 22 38 56 54 53 59 59 55 85
101 69 59 66 50 103 134 144 140 109 122 164 175 128 89 171 171 172 136 66 30 25 24 8 -38 98 117
43 60 65 77 88 102 120 165 151 204 215 133 243 211 247 254 256 241 219 160 139 101 44 5 -23 -48 -42
43 62 76 87 102 113 114 133 174 189 151 125 235 224 229 232 259 237 205 192 169 126 64 43 9 6 4
50 83 110 116 114 119 128 145 175 196 175 153 194 182 221 262 289 264 138 188 140 70 69 94 108 74 28
73 87 89 124 126 136 145 135 143 168 174 171 170 197 220 232 241 246 221 240 181 157 131 134 127 115 100
66 76 96 105 130 138 166 162 185 175 165 150 150 183 224 207 149 184 180 216 239 205 145 144 150 160 159
68 84 102 117 131 146 165 177 176 179 177 180 162 136 140 179 182 218 251 258 264 224 185 172 188 193 185
88 102 112 137 106 161 180 174 181 188 203 195 174 149 109 176 209 148 197 239 198 178 187 198 208 198 162

GFSFLT2_con_3kmhel_048.txt.gz
Helicity
514 392 318 269 234 230 174 144 130 76 48 46 59 68 76 77 67 79 93 91 87 94 104 118 139 152 185
381 302 253 220 154 151 135 126 105 94 75 64 65 74 71 61 69 94 88 88 99 117 107 118 126 126 110
265 199 167 159 136 102 105 109 110 63 48 55 75 93 96 94 108 93 92 97 85 64 53 50 51 55 57
171 176 167 136 134 134 132 116 114 100 77 80 107 97 79 82 74 58 50 46 47 50 53 56 55 47 41
145 142 145 136 120 138 122 116 126 106 123 130 106 88 68 54 42 36 43 59 75 80 79 73 65 57 53
157 140 123 121 135 145 158 143 144 81 116 77 58 64 71 65 36 37 51 61 67 73 72 71 66 64 56
115 125 155 158 194 157 129 121 82 45 45 60 63 62 58 57 25 37 46 43 48 48 57 70 65 61 61
152 164 164 144 120 99 51 25 34 47 55 82 56 63 60 58 39 27 17 33 48 49 60 66 71 57 53
157 138 101 59 29 34 37 49 59 60 71 65 66 66 79 110 53 28 59 59 62 63 57 42 34 25 37
116 61 23 20 27 45 57 70 67 74 106 102 80 67 70 101 107 104 79 62 50 58 44 29 17 78 99
26 21 23 29 42 56 64 79 81 122 119 117 145 108 163 189 148 138 122 120 91 100 28 -1 42 90 126
19 20 31 37 45 50 47 56 97 135 113 127 209 160 173 187 191 127 133 141 106 81 59 37 3 -25 3
27 30 34 40 36 38 51 63 83 123 140 135 187 186 200 238 236 176 117 123 88 47 62 89 75 69 67
36 38 38 46 54 56 58 61 67 75 96 135 156 157 193 204 183 155 152 141 120 138 124 111 101 98 98
45 48 50 54 58 65 70 71 90 92 88 107 118 140 191 190 189 187 122 136 140 134 105 118 133 129 139
46 49 54 60 62 65 74 85 92 96 107 104 105 123 146 160 135 174 150 146 149 121 109 91 91 94 107
51 56 61 65 59 66 71 79 86 95 107 119 131 134 70 122 135 99 121 138 115 113 124 119 113 82 74

GFSFLT2_con_3kmhel_051.txt.gz
Helicity
356 318 268 295 310 254 192 169 146 115 118 99 85 96 95 90 83 76 83 72 93 104 103 106 115 108 110
264 280 295 275 246 236 173 153 154 120 98 91 98 105 82 73 73 78 74 83 73 66 76 81 84 82 102
267 271 246 208 178 157 153 143 140 85 68 75 94 84 80 84 86 79 78 62 67 72 67 63 61 52 44
224 228 177 138 114 124 120 124 151 122 117 97 76 82 89 93 80 60 46 44 47 49 47 42 39 33 35
195 148 141 134 116 133 151 142 145 114 147 132 129 138 112 60 41 36 39 53 62 60 55 51 45 43 42
152 137 134 130 162 181 197 176 143 112 177 116 118 85 73 79 34 29 40 49 52 55 57 55 53 50 55
151 142 171 226 238 192 160 154 129 107 70 73 87 78 86 69 32 28 36 45 46 52 54 55 51 48 53
158 189 209 198 176 151 118 71 51 64 58 78 86 82 83 89 52 18 14 42 55 59 62 64 57 46 42
163 140 112 90 61 41 33 41 52 57 70 54 73 80 96 97 65 17 49 80 75 70 71 80 74 60 81
122 75 38 24 5 39 46 64 65 66 72 92 103 70 49 126 102 134 108 65 49 46 46 49 54 115 131
46 32 27 29 43 55 67 92 83 98 103 87 110 104 140 174 169 149 116 105 109 93 71 47 39 58 118
44 44 45 49 52 57 60 68 79 82 91 104 165 137 169 182 204 134 114 120 105 98 101 65 28 18 22
50 57 51 54 54 57 62 69 75 96 107 134 161 160 201 233 216 109 42 120 101 100 100 105 97 87 83
53 59 63 59 66 76 75 83 81 73 85 94 127 168 195 215 228 207 187 196 153 132 148 140 136 137 143
63 59 63 64 72 80 88 89 98 86 72 82 80 105 151 177 196 219 194 190 190 191 150 160 161 155 172
62 66 71 76 75 80 89 96 92 86 84 81 89 101 132 154 148 210 222 188 178 161 147 129 116 113 112
74 77 76 80 64 81 87 98 99 111 111 91 100 119 118 104 155 139 184 176 143 120 140 157 158 120 102

GFSFLT2_con_3kmhel_054.txt.gz
Helicity
244 284 324 359 295 300 270 235 205 124 124 83 90 101 104 89 93 95 96 103 104 101 100 101 109 110 127
241 242 230 218 246 232 180 158 145 87 70 72 99 91 79 91 97 94 90 92 95 98 110 108 113 115 112
162 191 217 232 213 169 166 134 129 82 96 122 110 120 112 100 97 100 101 94 90 95 86 81 68 54 51
196 211 237 187 171 177 152 140 146 142 157 124 106 110 111 122 115 108 90 73 61 50 43 43 41 37 36
211 193 149 143 145 143 136 165 165 143 163 141 161 154 126 101 70 42 39 49 55 54 49 40 38 32 28
127 127 134 151 172 192 200 207 193 148 201 130 174 128 94 92 42 38 46 52 52 49 45 36 30 28 22
116 150 204 215 206 212 201 181 175 163 141 97 72 77 104 79 49 36 35 41 40 45 43 39 35 24 17
191 212 214 221 218 184 153 116 93 71 49 58 82 75 71 72 58 14 23 41 60 67 64 52 36 29 33
143 130 125 107 87 103 67 51 57 61 72 62 57 42 56 67 39 7 53 73 63 57 65 58 41 39 73
121 95 70 41 12 45 71 73 62 59 88 75 93 50 8 42 66 98 87 72 42 48 43 47 51 92 106
65 49 44 43 42 46 57 93 92 80 92 78 93 77 63 68 76 114 79 92 98 81 42 50 54 71 101
61 58 57 57 52 56 57 64 69 73 93 114 117 99 91 90 103 106 95 97 108 107 96 55 40 38 35
55 58 54 55 54 54 51 62 69 77 80 98 120 106 133 141 129 104 76 134 100 81 111 117 102 89 70
58 53 45 53 63 71 75 86 82 80 90 90 109 128 127 149 164 149 154 157 137 123 148 146 143 171 166
60 55 58 59 67 75 81 87 98 77 69 93 101 105 124 128 136 158 148 166 163 85 89 109 163 179 182
59 56 58 64 66 80 87 93 93 84 71 84 90 95 113 143 130 169 170 183 196 174 193 123 144 121 142
57 71 71 75 59 90 98 100 99 93 94 93 100 108 98 68 99 77 137 160 141 78 156 202 195 160 130

GFSFLT2_con_3kmhel_057.txt.gz
Helicity
202 209 248 279 240 267 280 239 207 126 103 71 71 84 96 101 108 98 85 96 89 87 98 102 104 109 105
202 193 138 208 220 224 189 198 168 120 85 97 79 92 77 68 83 101 104 102 106 107 113 113 113 121 121
134 168 162 175 193 180 173 130 110 80 82 75 96 120 104 89 94 109 111 109 106 104 105 100 91 87 82
118 148 172 176 172 148 158 143 134 136 135 125 132 112 110 128 148 151 132 121 112 96 72 52 43 36 38
115 145 182 168 148 168 169 179 183 181 170 173 169 153 145 137 129 114 91 61 44 39 36 32 25 26 27
122 122 128 139 163 186 204 215 217 191 229 175 178 178 162 99 47 39 43 47 44 39 35 25 21 20 20
124 143 166 179 203 205 189 192 192 171 142 126 140 98 64 60 32 27 28 34 41 44 38 36 39 37 32
162 163 169 171 168 154 136 120 97 73 35 61 65 73 62 69 20 24 36 41 55 62 52 47 47 42 41
136 129 122 108 95 113 92 91 67 63 43 63 64 49 70 61 69 71 73 75 68 66 55 54 50 48 68
115 100 81 59 36 60 78 94 81 74 77 77 73 50 55 53 72 94 102 72 64 60 50 51 60 104 96
81 71 70 70 66 64 61 91 101 89 87 83 85 75 68 62 54 109 115 113 130 105 60 55 63 91 86
96 92 79 65 60 58 60 66 74 80 89 108 100 100 95 85 93 107 111 126 109 140 129 66 64 60 45
102 76 62 49 49 52 50 51 58 69 73 103 110 101 114 105 104 110 71 96 92 63 120 130 150 158 122
82 65 49 51 62 59 58 60 53 67 74 91 109 115 105 116 109 89 108 98 91 89 106 129 168 176 184
81 72 62 60 65 67 63 61 59 64 73 89 96 95 115 111 109 140 126 110 116 112 107 129 126 122 152
80 73 68 71 71 70 73 74 71 76 80 91 93 100 102 110 129 120 114 124 134 125 137 148 103 96 125
72 78 76 75 63 74 79 81 83 93 109 116 116 109 107 107 118 95 132 127 104 90 89 141 145 116 139

GFSFLT2_con_3kmhel_060.txt.gz
Helicity
164 215 242 218 275 242 253 251 244 165 122 96 89 76 85 116 132 135 115 100 91 89 84 80 82 87 84
181 169 201 187 200 171 172 128 104 113 105 111 99 106 119 124 103 77 97 97 83 80 81 84 79 90 99
124 129 124 108 125 160 141 148 134 130 101 94 95 89 98 111 110 88 82 87 85 90 93 83 76 81 89
136 108 108 150 173 172 176 128 128 106 100 135 136 137 123 127 118 124 130 104 88 85 77 71 67 68 66
124 137 134 151 153 141 141 165 164 157 175 160 161 155 142 127 120 100 101 101 94 80 66 49 36 32 30
141 131 134 158 177 191 194 221 217 181 224 184 171 172 161 145 104 86 55 33 32 38 38 37 30 26 27
147 168 182 195 219 221 218 209 187 179 157 123 158 123 94 55 17 15 23 32 38 44 46 48 46 33 26
164 154 159 150 156 153 148 136 105 86 77 103 56 50 49 42 7 23 52 70 70 83 70 53 41 34 26
181 158 138 129 104 144 125 137 111 91 56 75 72 63 56 70 91 135 142 106 85 75 74 62 49 38 47
145 147 137 110 95 92 103 128 109 119 88 93 80 68 103 102 109 123 98 89 77 76 72 64 58 83 79
125 113 110 113 121 111 90 105 119 102 80 90 85 94 87 74 61 89 143 130 162 144 72 68 54 57 73
135 138 147 152 120 86 80 75 75 80 69 87 99 119 109 76 47 81 110 147 163 134 147 80 46 32 26
145 130 119 100 85 89 81 70 62 67 69 92 105 104 125 116 96 60 57 81 120 87 94 132 130 117 101
122 111 102 100 103 93 88 86 76 88 66 62 77 92 98 118 109 76 92 90 84 118 121 112 122 131 133
130 126 114 100 96 90 89 86 85 106 113 108 78 75 89 87 90 120 102 100 108 92 105 92 92 100 124
125 124 117 109 103 99 97 103 89 95 100 111 115 99 91 92 83 110 106 98 91 110 140 116 66 81 102
133 128 118 106 92 101 108 119 101 98 101 108 125 102 71 79 99 54 120 122 130 141 156 128 126 88 93

GFSFLT2_con_3kmhel_063.txt.gz
Helicity
152 139 148 134 146 140 172 178 211 195 110 105 87 68 82 104 81 109 182 147 112 95 101 110 94 85 85
98 115 128 114 111 148 110 124 125 166 191 148 135 126 99 86 124 115 105 107 123 123 106 88 82 86 83
115 111 111 119 147 128 138 127 114 107 127 119 106 114 110 99 115 132 136 115 84 84 97 100 91 87 91
113 106 91 109 135 114 148 133 135 122 110 117 129 150 146 141 130 113 118 124 114 95 83 78 78 85 86
133 143 140 140 127 122 138 127 125 127 133 143 144 144 140 124 116 102 95 90 95 101 97 92 88 75 66
143 151 164 176 173 174 186 180 174 160 180 165 147 140 141 134 108 110 102 95 93 78 56 34 29 30 32
164 181 198 198 197 200 192 170 143 111 95 78 113 90 104 91 62 40 32 28 29 31 30 30 35 33 32
166 164 167 161 176 171 164 142 111 92 80 98 88 88 59 40 16 12 19 27 44 60 70 57 44 36 32
162 152 143 132 120 169 151 158 138 124 102 112 94 83 70 54 49 74 132 156 105 73 65 62 57 45 47
144 153 150 139 140 119 138 152 152 157 98 115 119 105 123 90 110 107 122 136 101 94 87 64 61 80 80
131 136 136 137 142 140 133 142 155 136 100 102 89 100 106 82 76 93 91 75 124 101 87 73 71 79 89
140 146 148 144 140 131 107 101 98 107 87 105 110 118 120 79 42 76 105 110 137 139 156 130 89 66 58
130 126 124 118 113 118 116 104 93 88 84 90 99 99 109 105 86 74 55 85 124 152 170 152 137 151 114
129 123 118 118 124 130 130 121 110 123 89 79 81 88 91 103 96 89 98 105 114 114 125 132 123 133 128
131 125 123 120 119 122 122 121 119 134 128 142 107 91 95 84 83 97 106 99 95 87 68 78 80 95 124
122 125 129 129 123 121 126 128 117 116 131 150 149 125 95 85 61 91 77 80 93 77 84 98 75 102 125
131 136 141 135 114 124 118 146 122 123 127 147 152 132 84 84 89 37 106 94 102 114 141 146 132 130 110

GFSFLT2_con_3kmhel_066.txt.gz
Helicity
102 79 75 92 109 102 100 135 155 132 216 176 56 51 51 53 87 101 94 118 155 166 128 102 87 81 66
106 116 124 103 65 100 95 115 85 132 156 170 163 142 128 114 96 108 105 106 97 100 101 102 84 77 74
88 88 81 67 66 74 81 118 97 108 135 140 134 106 93 94 85 79 110 135 129 100 85 82 87 92 88
64 73 78 67 71 76 85 100 116 108 108 113 139 152 159 168 159 147 137 121 110 116 107 95 90 87 87
78 84 92 104 103 105 114 117 131 139 135 137 138 134 131 128 126 114 100 93 97 97 104 99 92 84 91
95 113 118 125 134 144 143 147 141 156 162 148 132 120 118 117 96 92 85 90 89 83 72 58 48 36 28
125 134 144 140 143 136 140 139 129 110 93 91 106 95 113 114 88 85 83 77 60 38 27 24 23 21 28
134 128 124 122 125 116 111 100 85 78 59 58 81 86 80 84 74 63 47 35 33 32 34 49 41 30 26
129 130 133 127 103 132 118 126 108 106 94 104 113 110 100 99 95 95 111 140 147 122 74 50 45 41 49
95 102 111 110 112 111 118 125 121 133 110 132 138 119 151 93 96 88 84 92 117 109 74 72 54 60 68
89 97 103 111 118 113 105 116 129 123 103 107 111 129 128 104 74 80 87 80 88 69 68 56 51 64 76
100 103 110 109 106 102 91 88 93 102 98 122 121 131 128 108 87 102 106 88 99 87 103 102 84 61 64
107 109 107 96 88 88 91 95 93 99 103 115 111 106 117 120 118 111 72 105 137 158 168 165 175 167 83
114 115 105 100 104 113 108 110 103 123 107 103 106 113 102 107 110 99 115 106 124 138 119 110 110 102 113
129 121 110 110 114 121 120 119 117 116 128 158 146 125 122 108 110 118 131 129 129 111 84 85 103 103 110
113 116 115 117 116 120 124 129 119 108 101 134 148 151 137 110 113 128 115 115 94 91 99 75 74 111 134
108 106 114 129 97 119 117 118 120 137 119 142 152 154 138 145 119 72 128 114 113 99 112 129 95 123 108

GFSFLT2_con_3kmhel_069.txt.gz
Helicity
104 65 56 81 89 92 81 103 102 164 161 169 154 169 163 148 175 198 157 114 91 81 102 110 98 96 101
88 66 57 46 70 79 80 72 66 103 139 167 151 124 98 77 60 72 59 73 78 71 66 81 87 98 76
76 61 56 55 58 75 79 78 79 81 93 139 142 139 122 109 102 91 89 79 92 111 101 82 69 73 89
68 62 74 64 67 82 88 95 105 110 109 115 130 141 141 132 160 197 189 155 116 95 100 104 102 103 103
82 84 93 94 94 84 83 86 104 117 112 118 122 118 117 117 121 130 125 115 108 106 101 96 96 98 91
92 100 104 102 98 102 97 95 85 113 113 107 111 109 107 99 98 97 93 86 87 90 94 93 89 95 111
96 102 102 97 96 92 93 89 88 97 76 84 72 69 82 87 95 85 82 85 85 81 73 59 55 47 41
93 85 83 83 80 85 83 80 76 80 64 82 94 87 74 71 76 71 61 51 42 36 34 31 34 47 43
93 89 89 89 79 93 85 90 99 98 86 82 96 103 90 96 97 111 123 136 109 93 94 75 61 46 37
69 78 84 93 108 93 99 97 104 104 105 96 101 110 121 95 110 108 107 106 111 112 118 105 87 75 63
61 70 80 95 108 111 113 111 115 112 103 97 100 114 114 113 88 84 86 104 105 88 69 71 67 65 66
63 75 84 96 105 105 103 93 84 87 81 94 105 108 109 102 96 98 104 85 68 78 99 99 86 71 57
72 79 89 95 87 87 89 89 84 87 90 99 103 96 94 102 98 90 91 104 124 118 107 101 99 93 77
69 81 92 93 94 102 98 102 93 103 103 109 117 118 102 91 88 86 86 92 93 97 110 103 95 94 81
84 90 89 93 94 102 100 101 103 111 126 151 140 100 91 99 107 103 97 85 90 80 64 69 79 86 86
85 89 90 91 93 99 102 106 103 105 102 121 128 134 131 88 133 116 82 80 81 75 68 68 62 79 70
88 87 88 90 85 95 103 101 99 94 95 97 107 122 105 85 91 88 94 71 82 78 79 79 80 90 77

GFSFLT2_con_3kmhel_072.txt.gz
Helicity
102 77 45 26 27 57 88 90 99 137 166 171 132 124 100 120 172 247 280 266 254 162 106 76 73 65 78
79 70 53 50 43 61 70 77 78 123 146 165 154 133 111 94 73 90 123 130 95 75 35 24 66 117 118
61 53 53 61 58 66 76 86 90 102 117 124 137 142 123 104 111 93 68 70 57 65 82 102 112 107 81
85 70 66 65 65 73 76 92 101 110 120 124 130 136 141 136 137 160 172 166 145 129 106 89 102 116 116
90 79 83 81 90 80 82 90 96 115 119 122 129 131 130 122 115 121 136 133 122 111 105 98 95 101 107
93 98 101 95 89 91 84 93 90 104 121 108 114 118 128 130 131 109 108 100 98 97 99 98 99 100 99
95 104 94 95 91 77 85 83 85 90 82 91 103 106 105 96 99 106 104 101 101 93 87 88 87 87 95
92 88 83 75 72 78 70 70 66 83 84 95 109 116 97 87 93 90 85 81 76 76 72 70 71 69 59
69 70 74 69 67 64 66 74 82 95 100 107 123 121 105 92 93 98 127 135 131 104 82 66 65 82 73
52 58 63 79 78 72 80 80 93 94 120 116 125 134 126 109 90 100 100 86 101 105 113 112 99 98 94
54 63 72 79 83 95 101 106 107 116 137 123 117 121 121 119 105 96 93 95 107 99 78 72 72 85 107
61 67 75 83 91 98 98 98 98 104 103 119 122 120 119 113 109 104 110 103 96 95 105 102 85 74 71
60 67 77 94 91 86 89 90 88 96 105 109 102 107 113 116 117 105 103 107 117 97 84 80 79 90 94
73 83 87 87 92 103 102 102 100 108 129 118 110 109 104 98 89 85 87 100 95 93 105 103 87 77 80
81 86 93 95 93 92 90 93 95 107 116 126 119 90 80 82 88 90 89 87 89 80 76 89 93 94 89
89 92 92 94 94 94 88 89 91 99 108 115 116 114 101 80 88 85 67 69 73 78 80 81 84 79 75
95 98 100 101 94 92 93 94 91 93 100 112 118 122 109 87 69 79 81 68 64 68 82 91 87 83 67

GFSFLT2_con_3kmhel_075.txt.gz
Helicity
98 75 64 66 37 25 31 49 62 104 110 112 108 123 134 152 187 131 101 119 148 145 169 186 148 195 149
72 51 55 49 47 42 44 62 70 86 93 107 120 115 132 136 127 108 91 94 85 58 94 149 102 75 65
61 58 60 65 60 56 62 56 73 80 96 105 123 132 146 160 151 122 93 81 73 70 71 88 117 147 144
84 65 60 63 59 83 94 92 95 100 98 99 111 124 131 136 144 167 178 164 142 124 119 123 118 131 146
99 80 87 88 91 88 93 92 86 106 108 108 119 134 123 134 139 153 148 137 148 158 152 147 137 134 119
95 109 109 96 99 91 79 88 107 77 95 97 103 115 129 139 141 129 107 101 106 117 131 134 117 108 108
119 125 110 106 83 78 94 85 79 73 71 88 100 102 99 90 103 97 98 101 99 98 91 86 88 94 87
109 109 100 95 76 75 62 62 62 81 78 82 92 95 92 87 104 100 93 96 97 95 90 81 77 79 86
72 72 72 65 67 71 80 87 87 94 101 93 101 99 85 87 94 93 96 107 125 128 113 92 77 69 77
58 59 53 75 71 80 99 95 100 93 119 115 118 124 128 102 92 91 104 95 96 92 94 101 95 109 106
64 71 73 81 90 112 118 113 102 99 121 120 113 110 114 112 105 108 100 107 119 126 119 92 77 77 118
76 84 97 104 107 109 110 110 105 104 92 123 118 115 113 113 118 118 126 128 124 108 115 115 102 80 62
74 91 103 123 99 90 86 86 91 100 94 92 105 98 109 124 124 106 108 123 101 112 116 106 103 102 106
79 97 110 104 92 101 113 101 101 100 91 114 115 115 104 103 105 100 110 118 112 100 102 108 100 101 98
87 91 94 99 100 109 111 110 105 107 108 118 118 110 103 105 108 127 126 111 109 110 93 87 85 98 103
93 95 99 106 112 121 122 123 127 124 126 127 127 133 126 96 97 116 98 94 96 91 81 79 69 88 109
109 108 112 118 117 136 127 125 126 127 129 132 153 150 136 127 115 85 129 129 116 90 92 92 82 96 105

GFSFLT2_con_3kmhel_078.txt.gz
Helicity
116 87 75 70 58 53 35 29 43 73 72 77 92 103 118 145 162 164 171 188 193 232 327 261 173 158 149
79 43 55 61 46 43 34 34 55 65 76 97 106 120 126 135 161 169 150 129 156 228 239 194 196 118 50
63 48 49 71 59 53 46 47 50 81 90 99 107 119 135 141 163 167 169 145 118 108 93 126 130 130 166
80 68 62 66 81 92 104 98 82 95 102 74 94 103 112 122 132 148 150 173 174 141 120 112 108 121 146
96 82 85 93 87 79 87 83 89 89 87 91 87 94 97 118 115 128 134 141 138 137 153 140 106 119 135
91 100 95 91 87 79 70 87 85 70 67 80 80 85 83 70 85 87 95 98 111 116 123 134 147 145 123
95 92 92 81 74 85 79 72 64 55 67 79 82 80 77 72 82 83 81 89 90 90 96 101 108 115 120
94 89 87 88 80 68 64 63 64 76 69 74 68 69 62 67 91 93 115 109 100 84 85 88 84 87 88
62 68 65 66 73 83 87 86 74 82 87 78 74 75 72 79 82 97 115 105 114 116 116 125 115 97 93
55 45 47 62 82 85 78 84 80 87 77 88 86 95 101 86 90 90 98 107 111 117 111 104 106 118 112
39 46 53 67 87 93 95 97 97 89 102 99 98 95 101 96 100 120 122 117 121 118 121 119 111 87 103
55 57 72 81 92 97 92 95 102 95 79 97 105 111 109 110 108 111 105 112 133 133 118 99 97 82 66
57 59 76 91 104 94 64 70 73 77 74 72 95 92 105 112 113 115 121 152 144 144 124 107 108 109 103
67 73 100 108 93 89 99 93 98 99 74 76 101 132 126 101 99 102 120 122 138 132 124 103 101 86 84
76 78 75 90 94 100 113 111 125 127 110 88 101 130 125 131 112 133 148 139 140 126 128 101 91 81 85
97 91 87 97 110 112 122 130 131 125 115 112 121 151 139 104 99 109 134 141 149 119 103 98 72 100 116
133 121 109 112 99 115 115 127 129 132 125 125 137 159 128 118 120 78 149 160 158 150 145 124 85 75 83

GFSFLT2_con_3kmhel_081.txt.gz
Helicity
154 126 114 97 66 53 48 48 49 59 64 68 75 85 103 122 143 154 139 204 239 247 224 285 263 240 235
114 82 61 53 50 56 52 57 52 66 82 83 91 117 135 144 150 167 179 186 185 235 244 247 248 280 227
81 59 52 63 72 76 86 84 70 86 84 101 109 115 120 121 128 157 180 206 171 169 176 188 182 162 180
73 66 73 77 86 94 85 88 81 82 88 100 104 107 106 114 125 132 147 160 187 197 169 149 150 167 177
89 81 82 84 76 73 74 65 79 92 77 70 78 78 87 81 80 95 108 118 127 137 136 130 119 123 127
85 83 84 73 67 64 64 71 64 67 65 70 84 75 73 54 66 69 80 99 106 121 125 113 105 96 86
76 68 70 62 60 62 62 64 61 49 61 58 70 61 56 60 68 76 84 93 104 108 111 114 112 109 103
73 63 65 67 64 53 48 49 54 56 59 64 65 63 59 64 76 91 97 108 118 113 105 105 101 95 96
54 59 63 66 60 69 73 72 66 66 73 76 79 81 71 88 102 127 108 102 105 108 104 107 127 120 120
53 45 63 65 73 59 60 69 64 77 69 89 89 99 95 84 94 90 100 134 135 129 130 146 124 120 122
48 45 53 59 66 69 74 76 82 80 81 91 94 98 99 94 95 89 110 113 98 107 116 118 118 129 140
57 51 55 59 64 67 68 73 84 85 77 87 94 100 104 99 96 101 78 104 119 128 119 113 109 106 100
56 46 44 54 84 79 74 52 51 56 61 64 95 91 99 95 96 113 121 139 130 139 121 106 112 131 125
63 57 71 83 71 79 81 87 116 90 53 60 86 105 99 99 99 113 135 111 122 124 119 118 131 118 106
88 78 77 88 76 86 94 114 126 127 115 108 100 101 126 132 128 123 130 150 151 137 134 109 122 129 129
99 95 88 90 90 104 123 130 134 128 119 125 130 123 114 91 95 104 119 141 158 143 133 105 79 110 114
125 124 128 126 101 120 119 129 129 125 116 133 137 139 121 113 103 83 141 158 149 143 145 139 91 79 78

GFSFLT2_con_3kmhel_084.txt.gz
Helicity
152 131 121 99 92 61 54 62 53 66 56 67 77 84 71 88 121 141 143 178 212 226 34 15 126 249 276
158 131 109 79 67 62 75 74 66 67 73 78 76 69 84 94 121 155 177 147 179 242 363 441 437 340 326
138 119 79 60 85 91 92 82 80 91 89 91 92 90 92 94 127 138 159 187 162 157 166 241 209 198 239
117 97 88 92 106 97 91 87 78 76 81 82 85 89 88 94 112 124 129 133 152 168 166 129 147 184 190
99 98 89 97 88 85 82 68 72 83 68 75 69 74 79 65 65 90 99 106 106 113 121 146 166 173 181
94 95 78 79 72 75 75 76 71 76 72 72 71 73 70 56 64 75 83 93 91 87 100 113 113 114 114
77 78 69 51 69 77 74 78 72 67 70 72 73 70 61 62 78 89 98 100 92 97 94 94 96 95 100
74 64 54 55 66 69 68 73 75 73 79 84 77 70 69 74 98 103 110 111 117 125 121 119 115 98 95
52 51 52 46 56 74 75 83 82 82 91 85 87 80 78 85 96 114 119 127 125 134 123 111 118 142 138
63 72 70 66 67 55 66 72 75 86 76 85 85 93 92 80 88 110 124 136 122 109 109 117 124 115 116
58 58 63 62 62 65 69 68 75 73 72 82 92 96 104 101 97 94 105 101 93 97 109 104 111 106 112
71 65 59 54 52 57 57 63 67 71 75 87 94 95 97 101 112 120 109 89 104 119 120 144 134 126 108
77 72 62 58 77 62 57 69 76 64 66 72 95 86 99 105 115 129 129 117 97 119 119 81 97 109 105
88 81 89 94 78 77 69 82 93 79 72 71 70 96 106 107 125 124 130 115 126 116 87 106 120 105 106
99 107 90 81 80 100 87 98 102 111 109 100 98 91 102 133 119 124 120 140 153 148 131 108 111 119 113
168 145 73 106 121 112 113 110 113 125 130 131 127 128 113 95 93 98 98 126 148 144 137 120 85 110 127
193 154 96 119 110 130 129 133 132 137 132 138 147 150 133 112 104 69 137 142 156 145 142 144 89 78 99

GFSFLT2_con_3kmhel_087.txt.gz
Helicity
213 194 184 103 65 90 100 75 72 66 70 64 64 72 77 72 93 110 126 118 135 231 192 29 42 110 97
175 161 123 119 105 101 85 87 86 84 81 79 85 88 82 90 109 131 138 128 137 225 426 451 263 175 198
178 172 143 102 94 97 86 82 79 102 99 91 95 100 94 106 114 133 143 142 122 156 252 296 310 380 370
145 141 123 88 90 81 79 90 83 87 87 89 88 116 102 96 103 114 130 132 134 116 132 181 166 125 192
127 120 99 79 79 83 75 72 77 88 75 76 74 82 91 92 76 87 99 116 112 122 106 108 172 188 187
88 88 81 79 85 87 75 79 63 77 78 71 75 78 81 82 89 89 91 100 96 83 81 95 112 111 121
64 72 76 66 78 77 67 68 77 81 77 78 80 75 78 81 87 91 111 115 102 91 89 95 99 105 109
71 78 74 73 63 61 65 83 88 87 88 77 78 74 78 92 117 105 114 109 117 117 120 121 133 126 136
72 71 61 57 57 79 81 88 79 76 85 76 84 83 86 90 102 116 113 131 123 126 138 142 140 143 135
82 78 72 63 70 61 65 73 74 78 75 82 84 87 85 88 98 105 110 121 120 113 122 127 121 109 119
66 61 64 72 68 69 63 69 77 71 67 80 76 86 90 88 92 94 89 84 94 114 126 123 126 106 98
72 67 73 67 56 62 63 62 60 61 68 78 75 77 86 97 97 112 99 96 107 112 106 129 126 99 87
88 86 82 73 88 82 73 63 75 77 62 68 85 78 92 98 105 121 131 118 99 106 126 95 81 89 100
105 108 110 123 121 109 141 91 71 105 72 68 74 95 97 104 118 136 148 135 135 114 76 73 89 84 96
122 128 125 126 153 160 120 100 95 102 92 87 82 84 100 121 132 142 141 141 141 125 107 90 98 107 111
138 154 155 154 149 125 103 111 105 103 100 99 106 117 118 100 91 146 133 117 132 114 109 101 89 113 121
182 200 218 197 148 140 107 126 118 116 110 124 132 142 141 133 127 69 129 136 147 129 112 116 90 79 120

GFSFLT2_con_3kmhel_090.txt.gz
Helicity
203 193 219 193 146 121 46 59 105 71 64 68 69 62 56 51 88 121 104 119 133 217 223 38 39 72 68
177 193 178 159 147 102 93 114 106 79 70 63 66 63 62 79 96 130 128 144 150 217 403 351 150 129 97
161 172 179 158 135 96 95 97 82 93 85 87 87 78 79 88 116 138 135 140 142 176 300 392 422 360 195
175 151 130 111 99 85 81 89 73 79 93 91 89 94 84 88 111 121 119 120 130 139 180 229 269 310 332
148 141 114 91 78 62 73 77 73 76 76 79 76 72 80 91 82 103 116 116 119 119 130 156 178 214 211
110 100 79 54 60 69 82 80 64 70 73 67 69 70 78 88 93 99 118 112 115 116 116 96 126 144 148
38 52 52 58 85 77 62 70 65 60 61 67 77 71 80 91 84 89 101 115 119 109 113 113 115 111 132
26 54 70 70 65 55 59 77 71 60 67 74 80 76 73 94 111 91 95 110 114 118 120 117 129 142 153
75 83 76 71 71 84 60 60 57 57 69 69 76 76 74 76 85 105 98 116 115 123 120 124 132 139 142
79 81 81 63 62 44 47 57 53 57 51 68 66 79 74 73 77 84 89 112 111 111 113 117 131 119 126
72 80 70 73 67 59 47 53 60 58 54 70 66 66 69 64 67 73 79 80 78 92 109 124 134 121 109
63 63 69 76 62 72 70 70 65 61 66 79 87 83 76 69 66 82 78 76 83 93 93 112 142 121 96
87 101 91 86 102 100 96 90 72 65 92 65 103 104 91 68 70 83 100 100 88 85 107 116 97 99 112
92 100 111 120 123 114 105 85 78 97 73 73 68 89 70 62 81 94 103 109 107 106 89 84 90 85 83
115 114 118 121 125 147 139 127 102 83 81 79 67 59 59 76 85 108 126 122 128 113 97 93 108 99 89
124 119 119 145 169 198 199 141 113 82 98 85 89 90 81 68 57 126 139 133 135 123 124 103 97 125 98
135 133 151 147 147 194 204 164 122 97 92 111 113 120 114 107 110 57 134 125 136 135 123 113 96 92 104

GFSFLT2_con_3kmhel_093.txt.gz
Helicity
196 185 178 179 183 165 132 116 71 56 84 80 78 78 76 68 65 78 96 96 84 138 195 45 25 23 10
177 180 180 193 177 143 110 83 72 93 98 75 60 76 57 69 72 93 98 110 113 173 275 315 90 104 105
172 166 167 171 180 153 100 82 81 88 74 75 68 73 69 80 91 107 114 117 130 166 295 398 454 271 199
167 170 154 131 140 124 102 77 65 55 54 65 79 87 83 84 92 100 116 112 106 139 227 295 373 391 358
151 149 133 113 86 81 79 68 59 59 51 62 63 68 73 87 62 91 109 107 111 129 171 203 212 241 244
124 114 103 68 40 42 68 55 43 63 55 58 61 58 61 73 88 95 104 110 116 116 131 160 176 181 200
71 57 39 28 55 46 57 52 63 58 47 44 56 59 64 76 77 92 88 105 118 112 110 125 141 150 161
23 24 33 53 57 49 50 71 67 53 50 40 56 59 57 80 91 89 89 94 99 108 107 120 144 157 152
62 84 84 58 60 54 55 59 57 47 45 37 44 51 51 57 71 102 90 94 89 87 93 103 117 117 132
64 88 63 47 48 41 43 43 57 48 38 31 38 47 49 53 58 66 63 88 89 94 83 87 98 100 109
72 78 64 55 59 70 81 62 42 37 41 54 56 50 57 61 54 54 59 69 72 78 92 104 113 108 100
63 71 62 47 55 77 87 87 84 76 70 60 70 76 83 79 81 70 58 64 69 73 74 77 104 114 105
54 60 62 72 84 98 99 92 83 67 53 50 67 102 82 86 98 114 110 69 63 70 81 92 95 100 106
71 82 94 96 94 94 97 94 89 72 68 63 67 71 69 64 73 80 63 73 69 71 79 84 93 93 90
89 93 93 99 102 109 102 127 118 106 86 69 55 60 64 56 70 59 57 75 75 80 88 96 104 92 85
92 88 93 102 110 111 135 137 137 132 121 95 72 62 66 60 40 67 72 77 87 93 107 111 114 115 87
93 93 99 106 109 125 139 151 135 121 133 120 97 60 78 78 83 38 82 94 100 106 111 118 116 108 96

GFSFLT2_con_3kmhel_096.txt.gz
Helicity
171 166 163 171 178 166 155 170 170 150 98 50 80 78 70 58 66 77 98 100 85 90 171 101 21 18 38
174 169 171 169 172 174 163 151 145 118 77 93 78 72 57 54 62 68 87 92 99 115 210 197 62 26 42
185 187 187 180 188 168 156 140 94 61 73 97 80 63 44 46 56 78 88 100 107 134 217 334 319 147 135
173 187 179 164 162 148 123 88 66 51 66 67 61 55 53 52 65 82 101 113 115 135 193 302 414 406 328
168 173 157 143 131 107 91 66 43 50 48 44 46 53 58 61 64 88 98 113 120 116 170 227 249 305 374
141 145 126 108 94 80 54 61 46 46 47 50 47 64 62 60 66 84 100 106 121 121 130 164 199 166 186
100 88 81 57 49 45 45 51 58 52 41 37 50 52 55 58 70 73 77 100 114 118 137 146 146 131 134
63 62 45 54 47 49 48 65 57 47 35 54 41 42 51 54 68 77 101 111 109 112 124 131 157 141 127
87 65 72 86 65 62 78 76 50 53 42 39 50 48 32 39 56 92 92 102 97 103 107 118 127 123 121
74 71 61 81 66 55 52 64 63 51 42 44 38 39 41 41 49 54 49 68 87 107 109 115 129 111 109
60 61 73 90 81 67 60 66 61 48 55 54 32 41 41 42 48 52 54 57 61 71 93 108 118 129 105
91 93 69 73 82 89 100 91 93 82 78 69 58 48 57 50 69 71 57 60 63 64 68 65 72 90 93
56 61 72 83 93 89 91 94 97 92 74 57 48 46 50 72 99 76 66 70 77 79 63 58 65 73 80
68 87 96 94 92 98 104 102 102 94 72 73 71 63 54 56 62 62 62 76 76 73 73 69 66 68 71
89 99 98 95 92 99 105 107 107 106 96 99 88 77 50 43 51 42 49 61 67 72 77 76 74 71 78
91 101 102 98 102 106 112 110 113 112 114 133 128 94 68 38 33 55 59 58 68 70 72 83 91 75 70
101 111 108 105 97 113 118 117 114 124 132 147 113 80 81 61 72 29 69 87 96 90 77 76 92 105 93

GFSFLT2_con_3kmhel_099.txt.gz
Helicity
191 184 139 152 163 183 191 182 178 172 165 147 95 71 72 66 71 76 84 88 103 103 115 155 94 29 28
178 172 178 170 185 188 180 184 176 177 143 89 19 73 74 55 61 63 72 85 76 110 117 202 139 48 48
178 194 184 183 195 195 174 162 148 124 81 62 67 59 53 50 47 49 73 63 75 85 123 292 274 135 44
155 196 181 179 171 162 151 127 106 78 62 68 58 39 34 42 48 63 84 89 67 81 122 254 409 421 276
165 181 162 159 144 132 119 102 66 51 54 51 31 32 33 51 50 66 80 98 87 90 120 175 326 380 382
135 143 135 138 133 115 99 93 88 57 44 48 43 64 61 49 77 73 92 102 111 83 99 162 176 181 247
120 115 105 97 103 77 58 65 83 48 23 56 36 45 40 51 57 69 76 87 102 108 112 164 158 173 162
104 113 87 81 67 56 66 90 84 62 47 100 57 54 34 39 52 65 81 88 96 105 107 117 136 168 151
142 141 131 105 78 90 104 96 102 74 43 60 61 62 51 51 40 51 66 77 89 98 113 139 148 125 131
133 121 95 105 94 86 84 77 79 73 61 78 84 53 51 37 39 19 36 59 68 92 97 123 146 129 121
121 105 93 90 80 91 96 78 78 81 57 61 54 38 34 33 18 23 36 49 60 73 89 106 121 129 121
122 106 89 101 109 94 106 110 94 83 96 78 58 50 29 19 15 44 55 71 68 71 81 84 90 100 99
126 120 114 134 122 116 122 121 124 112 107 102 82 58 45 43 42 47 66 76 64 75 80 79 85 91 99
126 132 144 116 102 104 105 102 112 116 112 99 79 65 68 52 49 44 56 60 60 50 72 85 88 82 77
158 150 118 106 109 118 120 126 111 122 127 113 80 77 78 89 57 48 44 64 63 63 70 70 66 72 76
157 138 123 110 118 127 126 124 115 120 134 144 132 112 99 88 84 67 54 63 70 86 77 76 78 69 70
166 155 181 138 91 126 122 123 113 123 151 163 150 139 130 103 95 34 70 78 86 74 74 79 86 94 80

GFSFLT2_con_3kmhel_102.txt.gz
Helicity
154 173 146 123 133 155 152 157 183 185 183 150 147 126 63 55 63 53 50 66 80 76 76 92 117 89 18
178 176 170 144 145 143 145 155 167 179 169 135 107 83 22 46 40 40 41 48 81 82 94 152 165 81 52
164 170 176 178 180 170 151 147 146 138 122 105 87 60 54 32 31 27 37 28 55 61 88 166 309 121 73
158 180 181 177 164 149 139 138 135 111 90 73 55 34 28 28 31 32 37 42 57 64 87 159 372 298 213
175 203 184 153 136 132 132 135 99 82 63 58 36 21 18 35 23 39 45 67 57 69 92 171 283 362 259
150 134 116 123 136 136 148 133 108 57 61 48 35 41 47 47 67 61 58 58 107 126 135 130 250 231 187
124 108 105 113 133 123 101 90 105 48 53 57 31 41 34 44 53 68 66 84 90 90 105 158 153 129 162
123 98 91 107 111 93 88 111 105 61 63 85 52 56 35 28 33 38 43 52 73 90 102 110 183 180 171
126 133 153 115 126 150 138 148 99 80 61 69 48 62 55 38 35 44 46 50 59 68 94 120 133 147 149
158 152 160 157 114 75 97 119 125 103 47 74 78 81 60 27 31 38 34 32 47 69 99 125 134 113 113
143 148 162 133 115 108 88 87 105 77 41 74 75 62 41 35 22 15 17 25 39 60 85 112 127 115 107
163 142 148 122 113 111 106 111 83 69 85 86 71 56 49 34 19 24 29 37 51 66 72 82 96 101 97
154 143 132 130 124 134 144 133 143 127 112 100 91 97 71 42 23 15 26 35 59 75 83 79 70 82 98
169 164 183 146 124 134 127 106 130 113 115 117 106 106 91 59 55 38 26 28 52 60 72 82 83 83 79
185 191 182 154 128 117 118 118 110 114 118 117 108 100 89 83 69 48 40 45 55 62 80 78 77 74 80
192 187 173 146 143 143 131 126 119 126 135 136 147 141 120 82 70 91 71 62 57 71 77 79 84 83 77
198 185 181 153 123 143 133 150 119 117 134 151 148 148 145 120 108 64 88 67 76 82 70 71 73 82 75

GFSFLT2_con_3kmhel_105.txt.gz
Helicity
207 178 160 134 130 105 114 148 160 171 185 173 170 153 132 98 43 54 37 39 41 50 59 61 65 103 79
178 174 147 130 124 118 127 146 159 167 166 155 142 135 104 42 39 42 24 39 38 69 79 93 126 158 45
142 168 174 167 161 145 138 140 147 131 125 135 123 92 59 29 33 21 22 37 37 54 74 109 262 181 111
175 187 182 171 169 150 140 138 125 124 112 96 83 53 39 39 17 6 25 50 49 61 64 96 218 214 122
163 173 185 184 159 133 131 132 110 109 101 79 59 45 38 18 -1 3 19 35 39 63 69 119 148 239 157
169 168 160 143 138 136 147 141 122 107 91 53 43 36 24 27 46 52 56 55 57 79 138 109 176 215 173
146 139 137 136 142 126 113 112 110 68 76 53 45 41 33 30 42 45 63 69 86 110 117 150 169 202 132
142 131 120 106 125 122 113 119 105 81 73 69 69 58 45 24 32 34 40 52 73 86 107 129 184 172 134
130 110 100 80 111 169 156 180 109 78 73 75 73 59 45 38 41 52 59 60 70 81 92 96 118 172 185
168 160 149 127 115 137 140 162 142 110 75 105 82 63 56 44 34 42 42 46 55 66 95 108 98 102 150
172 179 178 185 174 132 89 107 144 105 67 88 67 60 67 57 38 34 32 33 37 43 71 97 108 99 107
184 177 171 150 154 160 129 104 98 76 65 78 65 65 64 64 46 42 28 22 31 39 50 64 90 113 108
165 161 153 158 185 193 180 155 170 146 98 71 79 100 88 73 56 34 33 14 21 38 60 77 88 100 103
163 184 209 210 175 156 166 149 159 139 119 116 102 105 101 97 80 54 37 26 18 31 49 63 73 85 88
188 208 202 196 180 172 163 153 147 124 116 134 119 117 113 103 92 63 60 45 26 42 68 67 65 66 79
151 191 212 203 192 182 166 139 139 129 135 128 136 137 130 93 65 78 69 50 46 67 74 75 75 76 64
151 171 204 204 170 173 144 153 141 150 136 137 146 142 126 97 105 51 91 75 89 88 66 70 67 78 89

GFSFLT2_con_3kmhel_108.txt.gz
Helicity
195 176 199 191 171 141 116 95 113 130 121 140 161 157 147 131 98 61 26 29 34 17 22 22 29 77 93
205 218 199 161 154 146 123 113 110 131 137 132 113 124 125 95 69 20 30 12 31 11 30 45 85 138 128
197 206 213 204 173 154 142 124 121 123 125 120 120 117 90 63 38 17 19 22 14 25 53 66 103 184 118
202 213 205 192 189 162 136 130 123 123 107 112 117 96 66 63 30 19 19 2 5 31 78 80 115 163 89
231 219 222 230 196 151 134 133 118 125 120 121 111 90 64 43 22 10 15 12 9 46 83 81 116 176 106
236 209 224 211 210 175 179 156 125 123 134 109 98 72 52 21 27 38 44 20 41 97 142 146 138 201 135
238 222 213 191 211 196 186 173 139 111 129 85 79 62 50 45 40 35 32 41 77 128 177 159 184 177 156
184 163 152 162 180 179 174 189 172 130 109 87 71 69 69 57 48 39 25 52 64 89 138 160 153 161 183
143 126 114 130 173 250 221 201 155 124 94 98 67 93 79 47 37 33 50 67 69 87 108 130 143 164 158
194 154 141 149 131 162 210 185 186 155 86 117 125 110 92 51 52 48 51 50 63 82 96 106 110 108 136
191 195 194 200 212 182 176 195 177 140 73 134 136 117 82 62 55 51 45 43 53 54 66 91 104 101 98
211 205 187 182 206 198 157 151 139 106 70 125 108 89 85 78 70 52 50 39 36 36 44 59 80 111 104
249 210 165 173 210 235 227 195 193 165 120 110 110 83 88 83 62 55 52 41 40 33 38 59 75 86 92
254 215 231 199 187 179 177 184 190 171 150 116 105 97 104 105 92 80 62 58 42 24 16 30 50 69 85
254 245 239 228 201 153 162 189 160 156 159 157 140 116 112 100 99 93 79 66 50 33 33 35 41 47 59
240 270 247 210 159 150 162 154 150 142 162 165 179 170 160 126 98 112 98 80 66 49 42 39 56 64 55
247 249 219 193 131 150 142 146 141 154 161 175 175 168 183 160 149 79 104 93 91 80 52 46 50 63 70

GFSFLT2_con_3kmhel_111.txt.gz
Helicity
227 179 198 198 183 177 168 141 132 108 114 136 140 142 141 126 105 100 62 34 34 48 28 34 47 68 78
264 239 218 198 188 180 160 152 140 126 129 139 134 124 133 103 88 75 43 36 42 32 39 55 58 86 105
222 247 269 240 244 200 168 162 147 138 139 145 126 112 108 95 93 49 48 47 37 33 36 69 82 100 93
232 325 250 194 229 212 171 156 140 161 138 136 133 129 115 115 87 55 50 39 39 37 51 91 97 80 76
228 345 325 232 204 196 160 155 130 154 165 156 160 133 110 117 80 52 45 43 41 55 78 102 85 73 92
305 242 312 326 216 212 210 203 159 144 177 148 139 116 110 89 62 58 47 51 62 81 97 108 122 110 121
192 185 245 229 219 231 251 224 182 156 195 133 116 111 99 76 66 60 59 46 63 92 122 116 129 148 148
163 181 140 154 179 221 215 214 207 178 161 135 119 124 99 81 58 61 63 61 68 88 109 111 127 141 134
201 160 93 106 181 254 248 236 189 157 150 127 122 128 101 86 74 66 58 55 68 92 104 104 103 142 91
174 179 137 157 109 176 208 202 207 162 128 151 155 136 126 90 96 77 68 64 75 85 99 105 111 92 103
244 248 221 187 197 187 163 203 206 170 123 190 154 155 130 119 103 69 65 65 65 62 69 87 111 90 71
215 221 229 217 231 228 177 199 188 159 132 144 135 135 141 143 104 87 72 52 41 35 46 68 86 97 93
204 213 231 222 281 308 274 247 233 223 188 150 129 118 122 118 97 97 74 44 48 40 57 66 66 74 72
215 241 254 240 273 288 314 215 218 221 189 151 134 123 124 121 116 106 76 63 53 55 45 37 36 60 84
240 234 234 227 245 287 296 266 233 236 180 178 162 135 116 121 132 121 95 93 74 68 65 51 41 42 60
237 201 240 239 249 252 310 298 253 209 155 164 185 191 171 143 109 135 115 109 88 72 64 55 52 49 47
244 222 234 243 216 259 271 273 200 138 147 162 156 173 176 135 144 102 133 125 112 96 74 66 55 46 57

GFSFLT2_con_3kmhel_117.txt.gz
Helicity
282 291 278 302 316 327 313 267 269 193 93 86 80 72 94 102 91 87 83 76 70 62 40 53 37 53 28
208 256 320 324 379 324 375 418 419 365 180 86 72 71 76 81 83 79 79 81 64 66 39 35 41 58 30
226 288 360 348 375 430 403 433 389 376 223 79 66 68 68 71 71 80 70 71 60 58 51 32 40 51 54
247 326 369 384 439 470 458 382 429 444 276 213 200 116 52 86 86 90 73 55 78 63 43 32 42 59 76
259 332 381 423 316 362 396 375 347 386 376 219 237 157 117 80 126 90 69 56 56 47 33 19 36 63 81
237 295 265 363 345 405 313 402 381 300 312 293 233 160 125 166 109 78 73 68 47 33 35 18 42 75 103
206 218 197 259 276 344 339 342 327 318 349 207 196 125 150 133 100 72 72 56 34 37 50 52 70 74 85
184 177 185 190 237 225 264 346 428 360 266 256 136 115 143 136 102 77 70 44 31 48 63 63 67 82 82
102 94 108 92 151 288 273 367 287 326 325 267 80 125 147 134 130 88 64 51 38 56 75 86 82 74 70
126 85 120 103 115 164 208 280 225 256 184 283 119 175 161 128 116 115 74 53 45 61 81 93 91 83 87
132 107 108 148 171 181 213 233 270 234 168 273 249 204 181 121 154 120 97 83 60 69 79 96 110 101 94
113 127 88 112 158 197 202 222 250 219 164 190 205 254 186 139 137 129 96 78 71 78 80 73 92 117 122
88 111 149 130 129 206 274 318 255 228 211 184 126 121 140 136 121 127 141 69 72 72 61 67 78 95 96
60 100 138 123 153 186 200 223 227 215 263 194 145 131 136 135 133 120 131 126 74 73 70 68 86 99 88
118 133 146 109 120 138 154 196 159 195 230 234 252 187 183 121 137 141 139 131 98 95 83 91 88 71 64
68 99 102 110 102 114 129 152 174 186 204 237 251 284 234 164 147 159 163 170 128 94 94 102 85 67 65
42 78 89 64 73 80 101 139 148 166 165 208 224 228 249 245 190 155 195 169 135 112 102 107 86 72 60

GFSFLT2_con_3kmhel_120.txt.gz
Helicity
182 170 194 178 213 237 289 293 320 257 257 313 346 290 235 205 88 101 100 84 64 65 64 67 48 45 45
162 183 170 187 189 229 281 323 362 358 325 306 303 300 217 135 90 75 78 91 87 71 75 70 50 53 44
139 160 186 240 236 266 296 304 347 332 289 359 368 266 224 244 108 109 64 64 64 45 61 57 52 67 74
161 172 189 226 251 268 289 303 310 401 351 399 361 248 239 246 133 132 51 66 62 52 16 51 49 58 87
179 183 244 281 275 261 321 297 326 365 396 333 284 331 323 229 252 126 42 52 58 50 40 50 60 30 44
194 189 173 184 183 219 240 368 378 352 384 345 421 353 359 291 227 197 75 49 62 57 36 43 68 42 68
192 207 199 199 191 249 277 327 296 246 259 345 448 341 386 341 242 155 66 64 41 48 44 47 55 74 73
181 215 226 204 155 153 176 195 304 313 293 307 387 323 376 329 127 34 32 75 56 83 57 39 49 83 76
124 137 137 152 135 145 240 268 219 208 292 305 233 328 305 264 132 66 91 73 74 83 17 37 78 98 76
106 110 112 121 105 87 87 190 211 186 205 296 302 288 271 223 178 154 120 82 78 84 40 67 101 97 78
104 107 106 97 60 49 34 180 236 152 139 225 291 305 224 154 173 182 127 102 87 74 64 77 120 111 87
107 85 92 79 66 48 63 121 157 128 137 227 125 252 274 241 176 138 117 127 99 94 88 89 105 113 115
93 79 94 77 52 64 117 145 192 183 198 202 182 188 215 201 178 51 93 100 84 92 112 95 107 111 124
90 70 88 89 54 84 72 100 110 120 168 154 154 166 186 185 211 126 122 85 102 105 102 109 105 114 118
64 56 53 81 76 60 34 59 72 61 82 122 155 196 225 152 150 115 79 115 103 118 114 114 108 114 118
60 39 62 66 45 29 30 38 50 49 94 127 149 195 165 122 174 68 101 103 126 139 126 117 111 86 90
51 36 49 41 28 11 15 30 38 44 75 116 92 120 134 125 166 155 121 132 171 194 154 119 98 74 68

GFSFLT2_con_3kmhel_126.txt.gz
Helicity
172 158 119 64 58 93 85 136 136 110 99 100 99 96 116 142 136 126 216 268 237 213 173 155 126 113 92
105 94 100 105 104 118 131 148 155 152 158 162 150 148 138 134 156 191 258 265 238 220 171 166 135 98 107
111 114 119 123 112 111 118 144 167 143 151 169 174 180 186 159 165 227 265 258 241 234 203 184 151 109 106
121 117 127 135 154 138 131 159 169 179 175 169 153 146 148 136 127 201 265 303 209 209 207 228 147 144 125
120 130 124 124 123 134 132 128 138 151 167 204 198 199 166 138 137 188 309 265 221 195 181 155 119 131 112
114 97 98 108 117 111 109 100 100 105 128 140 129 182 173 115 105 110 191 285 227 182 178 170 152 130 99
100 91 99 100 119 120 128 130 135 123 129 141 151 155 134 150 106 129 122 167 312 240 180 139 113 118 83
125 106 114 118 133 145 158 141 140 126 122 153 150 161 132 136 70 75 76 95 257 258 153 102 110 81 85
64 56 48 41 69 149 162 168 168 130 121 157 138 183 158 109 94 68 37 83 234 217 155 97 80 55 69
106 99 85 90 74 130 146 159 141 118 83 116 122 114 95 61 46 31 90 54 161 100 116 124 83 87 68
123 119 114 102 113 115 127 116 104 98 95 105 120 104 81 104 56 46 100 85 189 164 125 95 87 92 76
132 120 117 101 88 98 97 84 88 77 55 53 103 108 106 100 78 57 62 98 162 171 141 77 65 97 75
136 116 96 97 88 89 92 71 58 64 51 67 63 99 92 95 72 -3 14 60 124 152 82 74 97 98 70
131 103 91 90 77 79 85 66 51 54 42 41 43 65 80 61 43 -2 21 9 75 91 74 104 139 69 57
114 110 99 89 75 80 96 63 37 37 62 52 52 81 74 52 14 17 20 9 35 96 93 129 65 65 79
95 100 94 83 74 78 78 78 38 32 54 51 51 48 11 51 110 36 46 31 53 94 100 65 89 104 97
77 83 81 71 58 66 65 55 43 30 46 75 49 -15 -18 10 8 96 28 61 66 145 97 100 113 116 107